This is the latest recevied weather packets stored in our database for station/object KC1IUC-13. If no packets are shown the sender has not sent any weather packets the latest 10 day(s).
| Time | Temp. | Humidity | Pressure | Rain* | Wind** | Luminosity | Snow |
|---|---|---|---|---|---|---|---|
| 1777587483 | 11.67° C | 89% | 1003.9 hPa | 0.51 mm | - | 28 W/m² | - |
| 1777586943 | 11.67° C | 89% | 1003.5 hPa | 0.51 mm | - | 9 W/m² | - |
| 1777586403 | 11.67° C | 89% | 1003.2 hPa | 0.76 mm | - | 27 W/m² | - |
| 1777586043 | 12.22° C | 89% | 1003.2 hPa | 1.02 mm | - | 39 W/m² | - |
| 1777585503 | 12.22° C | 89% | 1003.2 hPa | 1.27 mm | - | 49 W/m² | - |
| 1777584963 | 12.22° C | 88% | 1002.8 hPa | 1.27 mm | - | 61 W/m² | - |
| 1777584423 | 12.22° C | 88% | 1003.2 hPa | 1.02 mm | - | 52 W/m² | - |
| 1777583883 | 12.22° C | 88% | 1002.5 hPa | 1.02 mm | - | 56 W/m² | - |
| 1777583343 | 12.22° C | 88% | 1002.8 hPa | 0.76 mm | - | 31 W/m² | - |
| 1777582803 | 12.78° C | 88% | 1002.5 hPa | 0.51 mm | - | 43 W/m² | - |
| 1777582443 | 12.78° C | 88% | 1002.5 hPa | 0.25 mm | - | 29 W/m² | - |
| 1777581903 | 12.78° C | 88% | 1002.1 hPa | 0 mm | - | 22 W/m² | - |
| 1777581363 | 12.78° C | 88% | 1002.1 hPa | 0 mm | - | 49 W/m² | - |
| 1777580823 | 12.78° C | 88% | 1002.1 hPa | 0 mm | - | 43 W/m² | - |
| 1777580283 | 12.78° C | 88% | 1002.1 hPa | 0 mm | - | 28 W/m² | - |
| 1777579743 | 12.78° C | 88% | 1002.1 hPa | 0 mm | - | 45 W/m² | - |
| 1777579203 | 12.78° C | 88% | 1002.1 hPa | 0 mm | - | 31 W/m² | - |
| 1777578843 | 13.33° C | 89% | 1002.1 hPa | 0 mm | - | 48 W/m² | - |
| 1777578303 | 13.33° C | 89% | 1002.1 hPa | 0 mm | - | 76 W/m² | - |
| 1777577763 | 12.78° C | 89% | 1002.1 hPa | 0 mm | - | 90 W/m² | - |
| 1777577223 | 12.78° C | 89% | 1002.1 hPa | 0 mm | - | 77 W/m² | - |
| 1777576683 | 12.78° C | 89% | 1002.5 hPa | 0 mm | - | 24 W/m² | - |
| 1777576143 | 12.78° C | 89% | 1002.5 hPa | 0 mm | - | 25 W/m² | - |
| 1777575603 | 12.78° C | 89% | 1002.5 hPa | 0 mm | - | 33 W/m² | - |
| 1777575243 | 13.33° C | 89% | 1002.5 hPa | 0 mm | - | 35 W/m² | - |
* Rain latest hour (hover to see other rain measurements)
** Current wind speed in m/s (hover to see current wind gust speed)